GFSFLT1_sfc_thetae_333.txt.gz
Theta_e
286 286 287 286 285 285 285 285 284 284 284 284 283 282 281 279 280 279 279 281 275 273 274 274 274 276 281 283 283 283 284 284
285 284 282 282 282 281 281 280 281 282 281 282 281 281 278 277 275 273 271 272 272 272 274 281 281 282 282 282 282 282 282 283
280 280 280 279 278 278 277 278 279 279 280 279 280 278 274 272 270 271 271 270 272 275 281 281 281 281 281 280 281 281 281 282
277 277 277 277 277 276 275 276 277 277 277 277 275 276 272 270 270 273 274 273 273 281 280 281 281 281 281 281 281 281 281 281
275 274 276 277 276 275 274 275 275 275 275 275 274 274 272 273 273 275 274 273 276 280 281 281 281 281 280 281 280 280 281 282
278 276 274 275 276 276 275 275 274 273 273 273 272 270 269 269 268 269 271 273 272 271 278 280 281 281 280 280 280 280 281 282
276 276 274 273 272 274 274 274 273 272 272 271 271 269 269 268 267 268 268 268 268 278 278 278 280 282 283 282 280 281 281 281
277 277 276 274 276 273 272 273 273 272 273 273 274 273 272 272 272 271 268 268 268 268 270 274 278 281 283 284 282 281 281 280
277 276 275 275 275 276 276 275 274 273 274 275 274 273 273 273 272 271 273 276 277 276 276 276 276 281 282 283 282 281 281 280
274 273 273 273 275 276 275 275 274 274 273 273 273 273 273 273 272 272 273 273 275 278 278 278 279 281 282 282 281 281 280 281
274 273 273 273 276 275 274 274 273 273 273 273 273 273 272 273 273 274 274 275 276 276 276 276 276 280 281 282 281 280 280 280
274 273 273 273 275 274 273 272 273 273 273 273 272 272 272 273 273 272 272 273 271 273 273 274 275 276 280 281 281 280 279 280
273 272 273 274 275 273 272 272 271 271 270 270 270 271 272 270 271 269 269 272 272 272 273 273 275 277 279 280 281 281 279 278
273 272 272 272 273 272 270 270 268 267 267 267 268 271 271 268 268 268 270 273 273 274 274 274 276 276 280 280 281 282 279 279
272 270 270 270 271 270 270 268 266 266 267 268 268 268 268 271 271 268 266 269 272 272 272 273 273 274 273 274 272 276 275 275
271 270 269 269 268 267 267 265 266 265 266 267 268 266 267 269 268 269 270 269 264 263 266 264 265 274 276 274 270 268 273 267
269 269 268 267 267 266 265 264 263 266 267 267 267 265 266 266 265 272 274 276 277 277 274 271 276 278 279 278 277 277 277 260
267 267 266 266 266 266 264 263 262 262 264 264 265 265 264 264 263 262 266 273 275 276 277 277 277 277 277 277 278 277 275 258
265 263 263 264 265 265 263 261 260 260 262 261 260 259 259 259 260 259 259 261 262 268 272 274 275 276 276 276 276 262 262 255
262 264 266 266 267 265 263 263 262 260 260 260 259 258 260 260 259 258 257 259 262 258 265 266 273 275 275 276 266 262 262 260

GFSFLT1_sfc_thetae_336.txt.gz
Theta_e
287 288 289 288 288 288 288 287 286 286 285 284 284 283 283 282 281 281 282 282 279 276 276 273 272 273 274 274 276 283 284 284
285 284 284 285 286 285 285 285 285 284 283 283 282 282 280 281 280 279 279 279 276 276 275 274 272 271 272 274 278 282 282 283
280 281 281 281 282 280 281 283 283 282 283 283 282 281 280 279 278 277 277 274 275 274 276 273 274 277 279 280 281 281 281 282
278 278 278 277 278 277 277 278 280 281 281 281 280 280 279 278 277 277 278 277 276 278 278 279 281 281 281 281 281 281 281 281
275 274 274 274 274 275 275 276 276 278 278 278 278 279 279 278 277 278 277 277 277 278 279 281 281 281 281 281 280 280 281 281
277 277 275 275 275 275 274 275 275 275 276 276 276 276 276 276 276 276 276 276 275 275 279 280 280 281 280 280 280 280 280 281
276 276 276 276 275 276 275 274 274 273 273 273 274 274 274 274 274 275 275 274 274 276 278 278 279 282 283 282 280 280 280 280
275 275 275 276 277 275 275 274 274 274 274 274 274 274 273 274 274 273 273 273 272 272 276 277 278 282 283 283 282 280 280 281
276 276 276 276 275 276 275 275 274 274 275 275 275 275 275 275 274 274 275 274 274 274 274 274 275 280 281 282 282 282 281 281
275 272 274 275 276 275 274 275 274 274 274 274 274 273 273 273 273 273 274 274 275 278 278 277 278 281 282 282 281 281 281 281
275 273 273 273 276 275 275 275 274 274 274 274 274 273 272 273 273 274 274 275 276 276 276 277 277 280 282 282 281 280 280 281
274 273 272 273 275 274 274 273 274 273 273 273 273 272 273 273 273 273 273 274 272 273 274 274 275 276 280 282 280 280 280 280
273 273 274 275 275 273 272 272 272 272 271 271 270 272 273 271 271 271 271 271 271 271 273 274 275 277 279 280 281 281 279 278
273 272 273 274 274 272 271 271 269 269 269 269 269 271 272 268 269 269 270 271 271 273 273 273 275 275 279 280 281 281 280 279
272 271 270 271 272 271 270 269 268 268 268 268 268 269 269 272 271 270 269 269 271 271 271 270 271 272 272 274 272 275 274 274
271 271 270 270 269 269 269 267 268 268 268 268 269 268 268 269 269 270 270 270 267 267 267 266 265 270 276 274 270 268 272 265
269 269 269 268 268 268 268 267 267 267 268 268 267 266 267 266 266 272 274 276 277 277 273 271 275 278 278 279 280 279 278 259
267 267 266 266 265 265 266 265 265 265 266 266 266 265 264 263 263 262 266 272 274 276 277 278 278 278 278 278 278 279 277 259
263 263 263 263 265 266 265 264 262 262 263 261 260 260 259 259 259 258 258 259 262 268 271 274 276 277 277 278 277 265 266 258
261 262 262 264 267 267 264 264 263 262 261 261 258 256 258 258 258 258 258 259 261 260 265 266 272 274 276 277 269 265 264 263

GFSFLT1_sfc_thetae_339.txt.gz
Theta_e
287 288 288 289 290 291 291 289 289 288 288 287 286 285 285 285 284 284 283 283 281 280 279 277 277 277 278 276 275 278 277 283
283 284 283 285 286 286 286 286 286 286 285 285 284 284 285 285 284 283 282 282 280 279 277 277 276 275 275 276 278 279 279 280
278 278 279 281 284 284 285 285 284 283 283 283 282 281 281 281 281 281 281 279 279 278 277 277 277 277 277 276 277 277 278 278
274 274 275 276 278 279 280 280 281 282 282 281 281 280 280 280 280 279 280 280 279 279 279 278 279 278 279 279 278 279 281 281
272 273 272 273 275 276 276 278 278 281 281 279 279 279 278 278 279 280 279 279 279 278 279 280 280 280 281 281 280 280 281 281
271 275 276 275 274 275 275 275 276 277 279 278 278 279 279 278 278 278 278 278 278 278 278 279 280 281 280 280 280 280 280 280
276 273 273 274 276 276 275 275 277 277 276 275 276 275 275 277 276 277 277 276 276 276 277 278 280 282 284 282 280 280 280 279
274 275 276 276 278 274 275 275 274 275 274 275 275 275 275 275 274 274 275 275 275 275 277 277 278 282 283 284 281 280 280 280
274 275 275 274 275 276 276 276 275 275 275 275 275 275 275 275 274 274 274 274 274 274 275 276 277 281 282 283 282 281 281 281
276 270 273 273 274 275 275 276 276 275 275 275 275 274 274 274 274 274 274 274 275 277 276 276 277 280 282 282 281 281 281 282
273 273 273 271 275 275 275 275 274 275 275 275 275 274 273 274 274 275 275 275 276 276 277 277 277 281 282 282 281 280 280 281
275 273 273 274 275 274 274 274 275 275 274 274 274 273 274 274 274 274 273 274 273 273 274 274 275 276 280 282 281 280 280 280
274 273 275 276 276 274 274 273 273 272 272 272 271 273 273 272 272 272 271 271 271 271 272 274 274 276 278 281 282 282 280 279
273 273 273 274 275 273 272 272 271 270 270 269 268 271 272 270 271 270 270 271 270 272 272 272 274 274 279 280 281 281 278 279
272 271 271 272 273 272 271 270 268 266 267 267 267 268 268 271 271 269 268 268 271 270 270 269 270 271 272 274 273 276 275 275
271 271 270 270 270 270 269 269 269 269 269 269 270 269 268 269 268 270 269 269 267 265 267 265 265 270 275 275 271 270 273 264
269 270 269 268 268 268 268 268 268 268 268 268 268 267 268 267 267 272 275 276 277 277 272 271 275 277 278 279 279 280 279 263
267 266 265 266 267 268 268 267 266 267 268 267 267 267 266 264 263 262 267 273 275 277 278 278 278 279 279 279 279 279 279 264
262 262 263 263 265 266 267 266 265 265 265 265 265 264 262 261 262 260 260 260 261 267 271 273 275 276 277 278 278 268 269 261
260 260 260 262 265 266 267 265 264 263 263 263 263 262 262 261 261 259 258 258 259 257 264 264 271 274 275 277 268 265 265 263

GFSFLT1_sfc_thetae_342.txt.gz
Theta_e
285 287 289 289 289 291 294 293 292 293 292 290 290 289 287 287 286 286 285 285 284 282 281 280 280 280 279 277 276 279 278 279
281 281 279 281 282 285 287 287 288 289 289 287 287 286 286 286 285 284 282 283 282 281 279 278 277 277 277 278 279 280 280 281
278 275 276 277 279 279 283 286 286 286 286 286 285 285 285 284 283 283 282 281 281 280 279 278 278 278 279 278 278 278 278 278
276 275 276 275 274 277 278 280 282 284 284 283 283 283 282 281 281 281 281 281 281 280 280 280 279 278 278 278 278 277 278 278
275 274 274 273 271 272 275 277 280 282 282 281 281 281 280 280 280 281 281 280 280 280 280 280 280 280 279 279 278 278 279 280
275 274 269 273 273 272 273 275 276 279 280 279 280 280 280 280 280 280 279 280 279 279 279 280 280 280 280 280 279 279 279 280
269 269 271 272 273 276 274 274 276 276 276 277 278 279 278 278 277 278 278 278 278 278 279 279 280 283 284 282 280 280 279 279
276 277 276 276 277 276 276 276 277 276 276 276 276 277 277 277 277 277 276 276 277 276 277 277 277 283 284 284 281 280 279 280
275 277 275 276 274 276 276 276 276 276 276 276 276 276 276 276 276 275 276 276 275 275 276 277 278 282 283 284 282 281 281 281
277 275 275 274 276 276 276 276 276 275 275 276 276 275 275 275 274 274 275 275 275 276 276 276 277 281 282 282 281 281 281 282
274 274 274 274 276 276 275 275 275 275 275 275 275 275 274 275 274 275 275 275 276 277 277 277 277 280 282 283 281 280 280 281
274 274 274 274 275 274 275 274 275 275 275 274 274 274 274 274 274 274 273 274 272 273 274 274 276 276 281 282 281 280 280 280
273 273 275 276 276 275 274 274 274 273 273 272 272 273 273 273 272 272 272 272 272 272 273 274 274 276 278 281 282 282 280 279
273 273 273 274 275 273 272 272 271 271 271 270 270 272 272 270 270 270 269 270 270 272 272 272 275 274 280 281 282 282 279 279
272 271 271 272 273 272 272 271 270 270 269 269 269 269 269 272 271 270 268 269 270 270 269 268 271 272 273 274 274 277 276 277
271 271 270 270 270 270 270 269 269 269 269 269 270 269 269 270 269 270 270 270 268 268 268 266 265 270 275 274 271 270 274 267
268 269 268 268 268 268 268 268 269 268 269 269 269 268 268 268 268 272 275 276 276 277 271 271 275 277 277 278 279 280 280 266
264 264 263 265 267 267 267 266 266 266 267 267 267 266 266 266 266 266 268 273 275 277 278 279 278 279 279 280 280 280 279 269
260 259 258 258 261 263 266 267 267 265 266 265 266 264 263 263 264 264 263 262 263 268 272 273 275 276 277 278 278 269 270 264
255 258 258 258 262 259 259 264 264 264 264 264 265 264 264 264 263 263 262 261 261 260 265 265 271 273 274 276 264 263 261 260

GFSFLT1_sfc_thetae_345.txt.gz
Theta_e
283 284 285 286 289 291 295 296 296 296 298 297 296 296 293 290 291 289 288 287 287 286 286 285 285 285 284 284 283 283 283 284
279 280 279 280 281 283 285 287 289 292 293 292 291 291 288 289 288 287 287 286 286 286 284 283 283 283 283 283 282 283 283 284
279 278 280 281 280 278 279 283 286 286 287 288 287 287 287 287 287 286 286 286 285 285 284 282 281 281 282 281 282 282 282 283
278 277 278 279 279 278 277 282 281 285 285 286 286 286 285 285 285 285 285 284 284 283 282 282 281 281 282 282 282 282 282 281
278 277 277 277 277 278 278 277 278 281 283 283 285 285 285 285 284 284 284 283 283 284 283 283 282 282 282 282 281 281 281 281
273 276 276 275 275 276 277 278 277 278 279 280 282 282 281 282 282 283 283 283 283 282 282 282 282 282 281 281 280 280 280 281
270 273 275 276 276 274 273 275 279 276 276 277 279 279 279 280 280 281 280 280 281 281 281 280 282 284 284 282 281 281 280 280
274 274 275 277 278 276 275 277 278 278 278 278 279 278 277 278 279 278 279 279 279 279 280 280 281 284 285 284 281 281 280 281
276 277 277 277 277 277 278 278 278 277 277 278 278 277 277 277 277 277 278 278 278 278 278 279 279 284 285 284 283 281 281 281
275 277 277 277 277 277 277 277 277 276 276 277 277 276 276 276 276 276 277 277 277 278 277 278 278 283 284 284 282 282 281 282
275 275 275 276 278 277 276 276 275 276 276 276 276 276 276 276 275 276 276 276 277 277 277 278 277 281 282 283 281 280 280 282
274 274 274 276 276 275 275 274 275 275 275 275 275 275 275 275 275 275 275 276 275 275 276 276 277 278 282 283 282 280 280 280
273 273 275 276 276 274 273 274 274 274 273 273 273 275 274 274 274 274 274 274 273 273 273 274 275 276 279 282 283 283 281 280
272 272 272 274 275 272 272 272 272 272 271 271 272 273 273 273 272 272 273 273 272 273 273 274 276 276 280 280 282 283 281 281
270 270 270 271 272 272 272 271 272 271 270 270 270 271 271 272 272 272 271 271 272 273 272 273 274 274 275 277 278 280 278 279
269 270 270 270 270 270 270 270 270 270 270 270 271 271 270 271 271 271 271 272 272 272 273 271 272 273 276 276 274 274 276 270
266 266 267 267 266 267 268 269 270 269 270 270 270 269 270 269 269 274 274 276 276 276 273 273 275 277 278 279 280 279 279 271
263 263 262 262 263 263 265 265 266 268 269 269 269 268 268 268 268 268 270 274 276 277 279 278 276 279 279 280 280 280 280 274
257 257 256 256 259 260 259 263 265 266 267 267 267 267 266 266 266 266 266 265 266 270 273 274 275 276 277 278 279 275 275 272
252 254 255 255 259 257 255 258 259 262 263 262 264 264 264 265 265 264 264 264 264 264 267 266 271 272 274 276 271 271 270 269

GFSFLT1_sfc_thetae_348.txt.gz
Theta_e
287 287 288 288 290 292 297 300 304 304 304 304 304 304 303 301 300 298 296 295 290 289 288 288 288 287 288 287 286 286 288 289
283 283 283 284 284 286 288 288 293 299 301 301 301 301 293 293 294 290 289 289 289 288 288 287 287 286 286 287 287 287 287 288
281 282 283 283 284 283 284 286 288 290 294 292 293 291 288 289 288 288 288 288 288 288 288 287 287 286 287 286 286 286 286 286
281 281 281 281 281 282 284 285 286 287 288 288 288 289 288 288 288 288 289 288 288 288 287 287 286 286 286 286 285 286 286 285
279 281 280 280 279 280 282 283 285 286 287 286 287 288 287 287 287 287 287 287 287 287 287 286 286 286 285 285 285 285 285 285
278 280 280 280 279 279 280 283 284 284 285 285 285 286 286 286 286 286 286 286 286 285 285 285 285 285 285 285 285 284 284 284
277 279 279 280 280 280 280 281 283 282 281 283 284 284 284 284 284 284 284 285 285 285 285 284 285 286 286 285 284 284 283 283
276 279 280 279 280 280 281 282 281 281 281 281 281 281 281 282 282 282 282 283 283 284 284 284 284 286 286 285 284 284 283 283
276 279 280 280 279 281 281 281 281 280 280 280 280 280 280 280 280 280 282 282 283 282 283 283 283 286 286 285 283 283 283 283
277 277 278 278 279 280 279 280 279 279 279 280 280 280 280 279 279 280 281 281 281 281 281 281 281 285 286 285 283 282 282 283
276 277 277 278 280 279 278 278 277 278 278 279 279 279 279 279 278 279 280 279 280 279 280 280 280 284 285 285 283 281 282 282
276 275 276 278 278 277 277 275 276 277 277 277 277 277 278 277 278 278 278 278 278 278 278 279 279 280 284 285 282 282 281 281
274 274 275 277 277 275 274 275 276 276 275 275 276 277 277 276 276 276 277 276 276 276 276 277 278 279 282 284 285 283 282 281
274 274 274 274 276 274 273 274 274 274 273 274 275 275 276 275 275 275 276 275 274 275 275 275 276 277 280 282 283 284 282 283
273 272 272 273 273 273 273 273 274 273 272 273 273 273 274 275 275 275 275 275 274 275 275 276 277 278 280 281 282 282 282 282
270 271 271 271 272 272 272 272 272 272 272 273 273 273 273 273 274 274 274 275 275 276 276 275 275 277 279 279 279 280 279 277
268 268 269 269 269 270 269 270 272 272 272 273 273 273 273 273 273 274 275 276 276 276 277 276 277 279 279 279 279 279 279 276
265 266 266 266 266 267 268 268 269 271 272 272 272 272 272 272 272 272 274 275 277 278 277 277 277 278 279 279 280 281 280 277
262 262 262 262 263 266 266 267 267 269 269 271 272 272 271 271 271 272 272 271 272 273 275 277 278 279 280 280 281 279 280 280
260 260 259 260 262 265 263 265 267 269 271 270 270 270 270 270 270 270 270 270 271 270 271 270 272 274 276 278 277 277 277 277